,,,PA_Meas_PMT16A,,PR_Meas_QMR101_102,,RH_Meas_QMH101,,SR_Meas_QMS101,,TA_Meas_QMH101,,GenWind,,GenWind,
date,time,status,PA,status,PR,status,RH,status,SR,status,TA,status,DirAvg,status,SpdAvg,
2011-08-29, 00:00:04,VALID,1009.595,VALID,0.0,VALID,94.026,VALID,0.106,VALID,26.519,VALID,188.0,VALID,1.493,
2011-08-29, 00:01:04,VALID,1009.62,VALID,0.0,VALID,94.277,VALID,0.0,VALID,26.54,VALID,191.0,VALID,0.432,
2011-08-29, 00:02:04,VALID,1009.576,VALID,0.0,VALID,94.689,VALID,0.0,VALID,26.499,VALID,207.0,VALID,1.126,
2011-08-29, 00:03:04,VALID,1009.583,VALID,0.0,VALID,94.674,VALID,0.106,VALID,26.521,VALID,217.0,VALID,0.802,
2011-08-29, 00:04:04,VALID,1009.579,VALID,0.0,VALID,94.483,VALID,0.0,VALID,26.521,VALID,216.0,VALID,0.925,
2011-08-29, 00:05:04,VALID,1009.547,VALID,0.0,VALID,94.346,VALID,0.0,VALID,26.521,VALID,192.0,VALID,0.686,
2011-08-29, 00:06:04,VALID,1009.517,VALID,0.0,VALID,94.064,VALID,0.0,VALID,26.521,VALID,211.0,VALID,0.215,
2011-08-29, 00:07:04,VALID,1009.554,VALID,0.0,VALID,94.239,VALID,0.0,VALID,26.521,VALID,211.0,VALID,0.159,
2011-08-29, 00:08:04,VALID,1009.527,VALID,0.0,VALID,94.026,VALID,0.0,VALID,26.542,VALID,211.0,VALID,0.09,
2011-08-29, 00:09:04,VALID,1009.515,VALID,0.0,VALID,94.392,VALID,0.0,VALID,26.521,VALID,211.0,VALID,0.164,
2011-08-29, 00:10:04,VALID,1009.523,VALID,0.0,VALID,94.91,VALID,0.0,VALID,26.521,VALID,211.0,VALID,0.288,
2011-08-29, 00:11:04,VALID,1009.509,VALID,0.0,VALID,94.887,VALID,0.0,VALID,26.501,VALID,290.0,VALID,0.405,
2011-08-29, 00:12:04,VALID,1009.542,VALID,0.0,VALID,95.2,VALID,0.0,VALID,26.501,VALID,269.0,VALID,0.708,
2011-08-29, 00:13:04,VALID,1009.525,VALID,0.0,VALID,94.887,VALID,0.0,VALID,26.523,VALID,325.0,VALID,0.813,
2011-08-29, 00:14:04,VALID,1009.536,VALID,0.0,VALID,95.459,VALID,0.0,VALID,26.523,VALID,324.0,VALID,0.056,
2011-08-29, 00:15:04,VALID,1009.511,VALID,0.0,VALID,96.001,VALID,0.0,VALID,26.503,VALID,324.0,VALID,0.22,
2011-08-29, 00:16:04,VALID,1009.531,VALID,0.0,VALID,96.184,VALID,0.0,VALID,26.482,VALID,248.0,VALID,0.628,
2011-08-29, 00:17:04,VALID,1009.534,VALID,0.0,VALID,96.374,VALID,0.0,VALID,26.462,VALID,208.0,VALID,0.223,
2011-08-29, 00:18:04,VALID,1009.554,VALID,0.0,VALID,96.298,VALID,0.0,VALID,26.484,VALID,211.0,VALID,0.318,
2011-08-29, 00:19:04,VALID,1009.538,VALID,0.0,VALID,96.092,VALID,0.0,VALID,26.482,VALID,211.0,VALID,0.159,
2011-08-29, 00:20:04,VALID,1009.558,VALID,0.0,VALID,96.1,VALID,0.0,VALID,26.462,VALID,211.0,VALID,0.0,
2011-08-29, 00:21:04,VALID,1009.525,VALID,0.0,VALID,96.351,VALID,0.0,VALID,26.462,VALID,211.0,VALID,0.482,
2011-08-29, 00:22:04,VALID,1009.54,VALID,0.0,VALID,96.817,VALID,0.0,VALID,26.421,VALID,231.0,VALID,0.701,
2011-08-29, 00:23:04,VALID,1009.535,VALID,0.0,VALID,97.282,VALID,0.0,VALID,26.423,VALID,269.0,VALID,0.456,
2011-08-29, 00:24:04,VALID,1009.53,VALID,0.0,VALID,97.236,VALID,0.0,VALID,26.343,VALID,310.0,VALID,0.427,
2011-08-29, 00:25:04,VALID,1009.551,VALID,0.0,VALID,97.358,VALID,0.0,VALID,26.326,VALID,310.0,VALID,0.354,
2011-08-29, 00:26:04,VALID,1009.559,VALID,0.0,VALID,97.694,VALID,0.0,VALID,26.287,VALID,310.0,VALID,0.224,
2011-08-29, 00:27:04,VALID,1009.551,VALID,0.0,VALID,98.075,VALID,0.0,VALID,26.228,VALID,310.0,VALID,0.132,
2011-08-29, 00:28:04,VALID,1009.532,VALID,0.0,VALID,98.487,VALID,0.0,VALID,26.148,VALID,310.0,VALID,0.336,
2011-08-29, 00:29:04,VALID,1009.512,VALID,0.0,VALID,98.975,VALID,0.0,VALID,26.131,VALID,310.0,VALID,0.481,
2011-08-29, 00:30:04,VALID,1009.536,VALID,0.0,VALID,99.356,VALID,0.0,VALID,26.07,VALID,310.0,VALID,0.054,
2011-08-29, 00:31:04,VALID,1009.528,VALID,0.0,VALID,99.752,VALID,0.0,VALID,26.031,VALID,310.0,VALID,0.279,
2011-08-29, 00:32:04,VALID,1009.498,VALID,0.0,VALID,100.103,VALID,0.0,VALID,26.014,VALID,50.0,VALID,0.785,
2011-08-29, 00:33:04,VALID,1009.487,VALID,0.0,VALID,100.248,VALID,0.0,VALID,25.955,VALID,93.0,VALID,0.86,
2011-08-29, 00:34:04,VALID,1009.469,VALID,0.0,VALID,100.134,VALID,0.0,VALID,25.897,VALID,63.0,VALID,0.794,
2011-08-29, 00:35:04,VALID,1009.491,VALID,0.0,VALID,100.248,VALID,0.0,VALID,25.838,VALID,42.0,VALID,0.841,
2011-08-29, 00:36:04,VALID,1009.464,VALID,0.0,VALID,100.271,VALID,0.0,VALID,25.778,VALID,35.0,VALID,0.812,
2011-08-29, 00:37:04,VALID,1009.498,VALID,0.0,VALID,100.492,VALID,0.0,VALID,25.719,VALID,35.0,VALID,0.276,
2011-08-29, 00:38:04,VALID,1009.494,VALID,0.0,VALID,100.744,VALID,0.0,VALID,25.68,VALID,36.0,VALID,0.0,
2011-08-29, 00:39:04,VALID,1009.517,VALID,0.0,VALID,100.828,VALID,0.0,VALID,25.663,VALID,35.0,VALID,0.39,
2011-08-29, 00:40:04,VALID,1009.517,VALID,0.0,VALID,100.896,VALID,0.0,VALID,25.604,VALID,44.0,VALID,0.409,
2011-08-29, 00:41:04,VALID,1009.555,VALID,0.0,VALID,101.095,VALID,0.0,VALID,25.565,VALID,44.0,VALID,0.0,
2011-08-29, 00:42:04,VALID,1009.531,VALID,0.0,VALID,101.362,VALID,0.0,VALID,25.546,VALID,44.0,VALID,0.236,
2011-08-29, 00:43:04,VALID,1009.538,VALID,0.0,VALID,101.407,VALID,0.0,VALID,25.485,VALID,44.0,VALID,0.453,
2011-08-29, 00:44:04,VALID,1009.541,VALID,0.0,VALID,101.628,VALID,0.106,VALID,25.485,VALID,44.0,VALID,0.301,
2011-08-29, 00:45:04,VALID,1009.564,VALID,0.0,VALID,101.697,VALID,0.0,VALID,25.468,VALID,44.0,VALID,0.397,
2011-08-29, 00:46:04,VALID,1009.557,VALID,0.0,VALID,101.819,VALID,0.0,VALID,25.388,VALID,44.0,VALID,0.492,
2011-08-29, 00:47:04,VALID,1009.573,VALID,0.0,VALID,102.017,VALID,0.106,VALID,25.39,VALID,44.0,VALID,0.504,
2011-08-29, 00:48:04,VALID,1009.557,VALID,0.0,VALID,102.177,VALID,0.0,VALID,25.329,VALID,41.0,VALID,0.608,
2011-08-29, 00:49:04,VALID,1009.546,VALID,0.0,VALID,102.322,VALID,0.0,VALID,25.31,VALID,29.0,VALID,0.565,
2011-08-29, 00:50:04,VALID,1009.529,VALID,0.0,VALID,102.421,VALID,0.0,VALID,25.271,VALID,16.0,VALID,0.321,
2011-08-29, 00:51:04,VALID,1009.524,VALID,0.0,VALID,102.521,VALID,0.0,VALID,25.251,VALID,16.0,VALID,0.173,
2011-08-29, 00:52:04,VALID,1009.513,VALID,0.0,VALID,102.597,VALID,0.106,VALID,25.232,VALID,16.0,VALID,0.33,
2011-08-29, 00:53:04,VALID,1009.488,VALID,0.0,VALID,102.696,VALID,0.0,VALID,25.212,VALID,16.0,VALID,0.275,
2011-08-29, 00:54:04,VALID,1009.477,VALID,0.0,VALID,102.749,VALID,0.0,VALID,25.193,VALID,16.0,VALID,0.393,
2011-08-29, 00:55:04,VALID,1009.475,VALID,0.0,VALID,102.788,VALID,0.106,VALID,25.173,VALID,16.0,VALID,0.297,
2011-08-29, 00:56:04,VALID,1009.458,VALID,0.0,VALID,102.864,VALID,0.0,VALID,25.154,VALID,16.0,VALID,0.308,
2011-08-29, 00:57:04,VALID,1009.447,VALID,0.0,VALID,102.94,VALID,0.106,VALID,25.156,VALID,16.0,VALID,0.303,
2011-08-29, 00:58:04,VALID,1009.452,VALID,0.0,VALID,103.062,VALID,0.106,VALID,25.156,VALID,16.0,VALID,0.392,
2011-08-29, 00:59:04,VALID,1009.459,VALID,0.0,VALID,103.146,VALID,0.106,VALID,25.134,VALID,356.0,VALID,0.671,
2011-08-29, 01:00:04,VALID,1009.45,VALID,0.0,VALID,103.123,VALID,0.0,VALID,25.115,VALID,331.0,VALID,0.727,
2011-08-29, 01:01:04,VALID,1009.471,VALID,0.0,VALID,103.115,VALID,0.106,VALID,25.115,VALID,343.0,VALID,0.539,
2011-08-29, 01:02:04,VALID,1009.449,VALID,0.0,VALID,103.169,VALID,0.106,VALID,25.095,VALID,343.0,VALID,0.36,
2011-08-29, 01:03:04,VALID,1009.438,VALID,0.0,VALID,103.222,VALID,0.106,VALID,25.115,VALID,343.0,VALID,0.181,
2011-08-29, 01:04:04,VALID,1009.431,VALID,0.0,VALID,103.207,VALID,0.0,VALID,25.097,VALID,343.0,VALID,0.127,
2011-08-29, 01:05:04,VALID,1009.454,VALID,0.0,VALID,103.23,VALID,0.0,VALID,25.078,VALID,343.0,VALID,0.264,
2011-08-29, 01:06:04,VALID,1009.428,VALID,0.0,VALID,103.306,VALID,0.0,VALID,25.058,VALID,343.0,VALID,0.294,
2011-08-29, 01:07:04,VALID,1009.412,VALID,0.0,VALID,103.359,VALID,0.0,VALID,25.058,VALID,343.0,VALID,0.146,
2011-08-29, 01:08:04,VALID,1009.376,VALID,0.0,VALID,103.405,VALID,0.0,VALID,25.058,VALID,343.0,VALID,0.36,
2011-08-29, 01:09:04,VALID,1009.355,VALID,0.0,VALID,103.436,VALID,0.0,VALID,25.039,VALID,343.0,VALID,0.27,
2011-08-29, 01:10:04,VALID,1009.339,VALID,0.0,VALID,103.52,VALID,0.0,VALID,25.039,VALID,343.0,VALID,0.0,
2011-08-29, 01:11:04,VALID,1009.324,VALID,0.0,VALID,103.504,VALID,0.0,VALID,25.039,VALID,343.0,VALID,0.401,
2011-08-29, 01:12:04,VALID,1009.295,VALID,0.0,VALID,103.481,VALID,0.0,VALID,25.019,VALID,343.0,VALID,0.257,
2011-08-29, 01:13:04,VALID,1009.291,VALID,0.0,VALID,103.489,VALID,0.0,VALID,25.041,VALID,343.0,VALID,0.127,
2011-08-29, 01:14:04,VALID,1009.263,VALID,0.0,VALID,103.481,VALID,0.0,VALID,25.041,VALID,343.0,VALID,0.333,
2011-08-29, 01:15:04,VALID,1009.258,VALID,0.0,VALID,103.527,VALID,0.0,VALID,25.019,VALID,343.0,VALID,0.085,
2011-08-29, 01:16:04,VALID,1009.268,VALID,0.0,VALID,103.581,VALID,0.0,VALID,25.06,VALID,343.0,VALID,0.0,
2011-08-29, 01:17:04,VALID,1009.301,VALID,0.0,VALID,103.542,VALID,0.0,VALID,25.019,VALID,343.0,VALID,0.0,
2011-08-29, 01:18:04,VALID,1009.313,VALID,0.0,VALID,103.535,VALID,0.0,VALID,25.0,VALID,343.0,VALID,0.0,
2011-08-29, 01:19:04,VALID,1009.331,VALID,0.0,VALID,103.527,VALID,0.0,VALID,25.0,VALID,343.0,VALID,0.0,
2011-08-29, 01:20:04,VALID,1009.33,VALID,0.0,VALID,103.535,VALID,0.106,VALID,24.978,VALID,343.0,VALID,0.0,
2011-08-29, 01:21:04,VALID,1009.362,VALID,0.0,VALID,103.573,VALID,0.106,VALID,24.978,VALID,343.0,VALID,0.195,
2011-08-29, 01:22:04,VALID,1009.372,VALID,0.0,VALID,103.603,VALID,0.106,VALID,24.978,VALID,343.0,VALID,0.201,
2011-08-29, 01:23:04,VALID,1009.396,VALID,0.0,VALID,103.626,VALID,0.106,VALID,24.978,VALID,343.0,VALID,0.262,
2011-08-29, 01:24:04,VALID,1009.39,VALID,0.0,VALID,103.642,VALID,0.106,VALID,24.978,VALID,343.0,VALID,0.349,
2011-08-29, 01:25:04,VALID,1009.39,VALID,0.0,VALID,103.657,VALID,0.106,VALID,24.978,VALID,343.0,VALID,0.39,
2011-08-29, 01:26:04,VALID,1009.368,VALID,0.0,VALID,103.695,VALID,0.106,VALID,24.978,VALID,343.0,VALID,0.396,
2011-08-29, 01:27:04,VALID,1009.39,VALID,0.0,VALID,103.787,VALID,0.106,VALID,24.998,VALID,343.0,VALID,0.499,
2011-08-29, 01:28:04,VALID,1009.373,VALID,0.0,VALID,103.848,VALID,0.106,VALID,24.998,VALID,343.0,VALID,0.34,
2011-08-29, 01:29:04,VALID,1009.361,VALID,0.0,VALID,103.863,VALID,0.106,VALID,25.017,VALID,343.0,VALID,0.158,
2011-08-29, 01:30:04,VALID,1009.339,VALID,0.0,VALID,103.909,VALID,0.106,VALID,25.017,VALID,343.0,VALID,0.239,
2011-08-29, 01:31:04,VALID,1009.333,VALID,0.0,VALID,103.916,VALID,0.0,VALID,25.017,VALID,343.0,VALID,0.0,
2011-08-29, 01:32:04,VALID,1009.297,VALID,0.0,VALID,103.886,VALID,0.106,VALID,25.058,VALID,343.0,VALID,0.008,
2011-08-29, 01:33:04,VALID,1009.242,VALID,0.0,VALID,103.825,VALID,0.0,VALID,25.041,VALID,343.0,VALID,0.311,
2011-08-29, 01:34:04,VALID,1009.247,VALID,0.0,VALID,103.779,VALID,0.0,VALID,25.039,VALID,343.0,VALID,0.34,
2011-08-29, 01:35:04,VALID,1009.213,VALID,0.0,VALID,103.726,VALID,0.0,VALID,25.06,VALID,343.0,VALID,0.34,
2011-08-29, 01:36:04,VALID,1009.209,VALID,0.0,VALID,103.664,VALID,0.0,VALID,25.021,VALID,343.0,VALID,0.236,
2011-08-29, 01:37:04,VALID,1009.211,VALID,0.0,VALID,103.687,VALID,0.0,VALID,25.019,VALID,343.0,VALID,0.165,
2011-08-29, 01:38:04,VALID,1009.202,VALID,0.0,VALID,103.687,VALID,0.0,VALID,25.019,VALID,343.0,VALID,0.346,
2011-08-29, 01:39:04,VALID,1009.227,VALID,0.0,VALID,103.687,VALID,0.0,VALID,25.002,VALID,343.0,VALID,0.247,
2011-08-29, 01:40:04,VALID,1009.225,VALID,0.0,VALID,103.71,VALID,0.0,VALID,24.961,VALID,343.0,VALID,0.128,
2011-08-29, 01:41:04,VALID,1009.231,VALID,0.0,VALID,103.733,VALID,0.0,VALID,24.961,VALID,343.0,VALID,0.0,
2011-08-29, 01:42:04,VALID,1009.238,VALID,0.0,VALID,103.787,VALID,0.0,VALID,24.982,VALID,343.0,VALID,0.017,
2011-08-29, 01:43:04,VALID,1009.22,VALID,0.0,VALID,103.802,VALID,0.0,VALID,24.982,VALID,343.0,VALID,0.261,
2011-08-29, 01:44:04,VALID,1009.244,VALID,0.0,VALID,103.825,VALID,0.0,VALID,24.941,VALID,343.0,VALID,0.339,
2011-08-29, 01:45:04,VALID,1009.251,VALID,0.0,VALID,103.832,VALID,0.0,VALID,24.922,VALID,343.0,VALID,0.218,
2011-08-29, 01:46:04,VALID,1009.243,VALID,0.0,VALID,103.848,VALID,0.0,VALID,24.922,VALID,343.0,VALID,0.109,
2011-08-29, 01:47:04,VALID,1009.227,VALID,0.0,VALID,103.909,VALID,0.0,VALID,24.922,VALID,343.0,VALID,0.281,
2011-08-29, 01:48:04,VALID,1009.265,VALID,0.0,VALID,103.931,VALID,0.0,VALID,24.883,VALID,343.0,VALID,0.432,
2011-08-29, 01:49:04,VALID,1009.247,VALID,0.0,VALID,103.977,VALID,0.0,VALID,24.902,VALID,343.0,VALID,0.438,
2011-08-29, 01:50:04,VALID,1009.26,VALID,0.0,VALID,104.0,VALID,0.0,VALID,24.902,VALID,343.0,VALID,0.287,
2011-08-29, 01:51:04,VALID,1009.256,VALID,0.0,VALID,104.0,VALID,0.0,VALID,24.883,VALID,343.0,VALID,0.255,
2011-08-29, 01:52:04,VALID,1009.267,VALID,0.0,VALID,104.0,VALID,0.0,VALID,24.902,VALID,343.0,VALID,0.291,
2011-08-29, 01:53:04,VALID,1009.248,VALID,0.0,VALID,104.0,VALID,0.0,VALID,24.902,VALID,343.0,VALID,0.6,
2011-08-29, 01:54:04,VALID,1009.254,VALID,0.0,VALID,104.0,VALID,0.0,VALID,24.902,VALID,345.0,VALID,0.647,
2011-08-29, 01:55:04,VALID,1009.262,VALID,0.0,VALID,104.0,VALID,0.0,VALID,24.883,VALID,351.0,VALID,0.623,
2011-08-29, 01:56:04,VALID,1009.245,VALID,0.0,VALID,104.0,VALID,0.0,VALID,24.904,VALID,352.0,VALID,0.398,
2011-08-29, 01:57:04,VALID,1009.269,VALID,0.0,VALID,104.0,VALID,0.0,VALID,24.883,VALID,352.0,VALID,0.262,
2011-08-29, 01:58:04,VALID,1009.254,VALID,0.0,VALID,104.0,VALID,0.0,VALID,24.883,VALID,352.0,VALID,0.0,
2011-08-29, 01:59:04,VALID,1009.276,VALID,0.0,VALID,104.0,VALID,0.0,VALID,24.842,VALID,352.0,VALID,0.037,
2011-08-29, 02:00:04,VALID,1009.29,VALID,0.0,VALID,104.0,VALID,0.0,VALID,24.844,VALID,352.0,VALID,0.524,
2011-08-29, 02:01:04,VALID,1009.284,VALID,0.0,VALID,104.0,VALID,0.0,VALID,24.822,VALID,352.0,VALID,0.499,
2011-08-29, 02:02:04,VALID,1009.294,VALID,0.0,VALID,104.0,VALID,0.0,VALID,24.824,VALID,352.0,VALID,0.273,
2011-08-29, 02:03:04,VALID,1009.317,VALID,0.0,VALID,104.0,VALID,0.0,VALID,24.805,VALID,352.0,VALID,0.175,
2011-08-29, 02:04:04,VALID,1009.338,VALID,0.0,VALID,104.0,VALID,0.0,VALID,24.805,VALID,352.0,VALID,0.439,
2011-08-29, 02:05:04,VALID,1009.311,VALID,0.0,VALID,104.0,VALID,0.0,VALID,24.785,VALID,352.0,VALID,0.367,
2011-08-29, 02:06:04,VALID,1009.317,VALID,0.0,VALID,104.0,VALID,0.0,VALID,24.785,VALID,352.0,VALID,0.341,
2011-08-29, 02:07:04,VALID,1009.312,VALID,0.0,VALID,104.0,VALID,0.0,VALID,24.785,VALID,352.0,VALID,0.348,
2011-08-29, 02:08:04,VALID,1009.311,VALID,0.0,VALID,104.0,VALID,0.0,VALID,24.787,VALID,352.0,VALID,0.207,
2011-08-29, 02:09:04,VALID,1009.275,VALID,0.0,VALID,104.0,VALID,0.0,VALID,24.766,VALID,352.0,VALID,0.489,
2011-08-29, 02:10:04,VALID,1009.278,VALID,0.0,VALID,104.0,VALID,0.0,VALID,24.785,VALID,352.0,VALID,0.263,
2011-08-29, 02:11:04,VALID,1009.23,VALID,0.0,VALID,104.0,VALID,0.0,VALID,24.785,VALID,352.0,VALID,0.319,
2011-08-29, 02:12:04,VALID,1009.249,VALID,0.0,VALID,104.0,VALID,0.0,VALID,24.785,VALID,352.0,VALID,0.396,
2011-08-29, 02:13:04,VALID,1009.217,VALID,0.0,VALID,104.0,VALID,0.0,VALID,24.785,VALID,352.0,VALID,0.225,
2011-08-29, 02:14:04,VALID,1009.219,VALID,0.0,VALID,104.0,VALID,0.0,VALID,24.766,VALID,352.0,VALID,0.0,
2011-08-29, 02:15:04,VALID,1009.213,VALID,0.0,VALID,104.0,VALID,0.0,VALID,24.766,VALID,352.0,VALID,0.002,
2011-08-29, 02:16:04,VALID,1009.226,VALID,0.0,VALID,104.0,VALID,0.0,VALID,24.766,VALID,352.0,VALID,0.001,
2011-08-29, 02:17:04,VALID,1009.232,VALID,0.0,VALID,104.0,VALID,0.0,VALID,24.766,VALID,353.0,VALID,0.639,
2011-08-29, 02:18:04,VALID,1009.249,VALID,0.0,VALID,104.0,VALID,0.0,VALID,24.766,VALID,354.0,VALID,0.582,
2011-08-29, 02:19:04,VALID,1009.271,VALID,0.0,VALID,104.0,VALID,0.0,VALID,24.766,VALID,354.0,VALID,0.376,
2011-08-29, 02:20:04,VALID,1009.266,VALID,0.0,VALID,104.0,VALID,0.0,VALID,24.785,VALID,354.0,VALID,0.355,
2011-08-29, 02:21:04,VALID,1009.273,VALID,0.0,VALID,104.0,VALID,0.0,VALID,24.785,VALID,354.0,VALID,0.306,
2011-08-29, 02:22:04,VALID,1009.281,VALID,0.0,VALID,104.0,VALID,0.0,VALID,24.807,VALID,355.0,VALID,0.605,
2011-08-29, 02:23:04,VALID,1009.257,VALID,0.0,VALID,104.0,VALID,0.0,VALID,24.805,VALID,76.0,VALID,0.725,
2011-08-29, 02:24:04,VALID,1009.26,VALID,0.0,VALID,104.0,VALID,0.0,VALID,24.805,VALID,80.0,VALID,0.394,
2011-08-29, 02:25:04,VALID,1009.294,VALID,0.0,VALID,104.0,VALID,0.0,VALID,24.805,VALID,79.0,VALID,0.58,
2011-08-29, 02:26:04,VALID,1009.28,VALID,0.0,VALID,104.0,VALID,0.0,VALID,24.824,VALID,79.0,VALID,0.355,
2011-08-29, 02:27:04,VALID,1009.304,VALID,0.0,VALID,104.0,VALID,0.0,VALID,24.824,VALID,79.0,VALID,0.629,
2011-08-29, 02:28:04,VALID,1009.291,VALID,0.0,VALID,104.0,VALID,0.0,VALID,24.824,VALID,79.0,VALID,0.192,
2011-08-29, 02:29:04,VALID,1009.294,VALID,0.0,VALID,104.0,VALID,0.0,VALID,24.824,VALID,79.0,VALID,0.254,
2011-08-29, 02:30:04,VALID,1009.318,VALID,0.0,VALID,104.0,VALID,0.0,VALID,24.844,VALID,60.0,VALID,0.535,
2011-08-29, 02:31:04,VALID,1009.328,VALID,0.0,VALID,104.0,VALID,0.0,VALID,24.824,VALID,57.0,VALID,0.564,
2011-08-29, 02:32:04,VALID,1009.316,VALID,0.0,VALID,104.0,VALID,0.0,VALID,24.844,VALID,58.0,VALID,0.312,
2011-08-29, 02:33:04,VALID,1009.34,VALID,0.0,VALID,104.0,VALID,0.0,VALID,24.824,VALID,58.0,VALID,0.237,
2011-08-29, 02:34:04,VALID,1009.364,VALID,0.0,VALID,104.0,VALID,0.0,VALID,24.824,VALID,58.0,VALID,0.196,
2011-08-29, 02:35:04,VALID,1009.375,VALID,0.0,VALID,104.0,VALID,0.0,VALID,24.785,VALID,58.0,VALID,0.42,
2011-08-29, 02:36:04,VALID,1009.366,VALID,0.0,VALID,104.0,VALID,0.0,VALID,24.785,VALID,50.0,VALID,0.542,
2011-08-29, 02:37:04,VALID,1009.391,VALID,0.0,VALID,104.0,VALID,0.0,VALID,24.764,VALID,50.0,VALID,0.468,
2011-08-29, 02:38:04,VALID,1009.368,VALID,0.0,VALID,104.0,VALID,0.0,VALID,24.766,VALID,50.0,VALID,0.045,
2011-08-29, 02:39:04,VALID,1009.314,VALID,0.0,VALID,104.0,VALID,0.0,VALID,24.785,VALID,50.0,VALID,0.148,
2011-08-29, 02:40:04,VALID,1009.288,VALID,0.0,VALID,104.0,VALID,0.0,VALID,24.766,VALID,50.0,VALID,0.132,
2011-08-29, 02:41:04,VALID,1009.221,VALID,0.0,VALID,104.0,VALID,0.0,VALID,24.766,VALID,50.0,VALID,0.0,
2011-08-29, 02:42:04,VALID,1009.179,VALID,0.0,VALID,104.0,VALID,0.0,VALID,24.766,VALID,50.0,VALID,0.0,
2011-08-29, 02:43:04,VALID,1009.149,VALID,0.0,VALID,104.0,VALID,0.0,VALID,24.766,VALID,50.0,VALID,0.0,
2011-08-29, 02:44:04,VALID,1009.095,VALID,0.0,VALID,104.0,VALID,0.0,VALID,24.766,VALID,50.0,VALID,0.0,
2011-08-29, 02:45:04,VALID,1009.052,VALID,0.0,VALID,104.0,VALID,0.0,VALID,24.785,VALID,50.0,VALID,0.0,
2011-08-29, 02:46:04,VALID,1009.021,VALID,0.0,VALID,104.0,VALID,0.0,VALID,24.766,VALID,50.0,VALID,0.0,
2011-08-29, 02:47:04,VALID,1009.004,VALID,0.0,VALID,104.0,VALID,0.0,VALID,24.766,VALID,50.0,VALID,0.164,
2011-08-29, 02:48:04,VALID,1008.978,VALID,0.0,VALID,104.0,VALID,0.0,VALID,24.766,VALID,50.0,VALID,0.273,
2011-08-29, 02:49:04,VALID,1008.928,VALID,0.0,VALID,104.0,VALID,0.0,VALID,24.785,VALID,50.0,VALID,0.255,
2011-08-29, 02:50:04,VALID,1008.913,VALID,0.0,VALID,104.0,VALID,0.0,VALID,24.766,VALID,50.0,VALID,0.32,
2011-08-29, 02:51:04,VALID,1008.869,VALID,0.0,VALID,104.0,VALID,0.0,VALID,24.785,VALID,50.0,VALID,0.229,
2011-08-29, 02:52:04,VALID,1008.861,VALID,0.0,VALID,104.0,VALID,0.0,VALID,24.846,VALID,50.0,VALID,0.211,
2011-08-29, 02:53:04,VALID,1008.862,VALID,0.0,VALID,104.0,VALID,0.0,VALID,24.824,VALID,77.0,VALID,0.496,
2011-08-29, 02:54:04,VALID,1008.839,VALID,0.0,VALID,104.0,VALID,0.0,VALID,24.844,VALID,163.0,VALID,0.618,
2011-08-29, 02:55:04,VALID,1008.874,VALID,0.0,VALID,104.0,VALID,0.0,VALID,24.863,VALID,186.0,VALID,0.517,
2011-08-29, 02:56:04,VALID,1008.851,VALID,0.0,VALID,104.0,VALID,0.0,VALID,24.844,VALID,186.0,VALID,0.285,
2011-08-29, 02:57:04,VALID,1008.859,VALID,0.0,VALID,104.0,VALID,0.0,VALID,24.824,VALID,186.0,VALID,0.301,
2011-08-29, 02:58:04,VALID,1008.889,VALID,0.0,VALID,104.0,VALID,0.0,VALID,24.846,VALID,186.0,VALID,0.298,
2011-08-29, 02:59:04,VALID,1008.911,VALID,0.0,VALID,104.0,VALID,0.0,VALID,24.805,VALID,186.0,VALID,0.357,
2011-08-29, 03:00:04,VALID,1008.929,VALID,0.0,VALID,104.0,VALID,0.0,VALID,24.805,VALID,141.0,VALID,0.6,
2011-08-29, 03:01:04,VALID,1008.917,VALID,0.0,VALID,104.0,VALID,0.0,VALID,24.805,VALID,64.0,VALID,0.698,
2011-08-29, 03:02:04,VALID,1008.941,VALID,0.0,VALID,104.0,VALID,0.0,VALID,24.785,VALID,58.0,VALID,0.514,
2011-08-29, 03:03:04,VALID,1008.938,VALID,0.0,VALID,104.0,VALID,0.0,VALID,24.787,VALID,50.0,VALID,0.686,
2011-08-29, 03:04:04,VALID,1008.929,VALID,0.0,VALID,104.0,VALID,0.0,VALID,24.746,VALID,49.0,VALID,0.545,
2011-08-29, 03:05:04,VALID,1008.944,VALID,0.0,VALID,104.0,VALID,0.0,VALID,24.727,VALID,49.0,VALID,0.564,
2011-08-29, 03:06:04,VALID,1008.958,VALID,0.0,VALID,104.0,VALID,0.0,VALID,24.727,VALID,47.0,VALID,0.716,
2011-08-29, 03:07:04,VALID,1008.986,VALID,0.0,VALID,104.0,VALID,0.0,VALID,24.729,VALID,47.0,VALID,0.885,
2011-08-29, 03:08:04,VALID,1009.003,VALID,0.0,VALID,104.0,VALID,0.0,VALID,24.707,VALID,49.0,VALID,0.768,
2011-08-29, 03:09:04,VALID,1008.985,VALID,0.0,VALID,104.0,VALID,0.0,VALID,24.707,VALID,55.0,VALID,1.115,
2011-08-29, 03:10:04,VALID,1008.979,VALID,0.0,VALID,104.0,VALID,0.0,VALID,24.727,VALID,59.0,VALID,0.727,
2011-08-29, 03:11:04,VALID,1008.995,VALID,0.0,VALID,104.0,VALID,0.0,VALID,24.746,VALID,62.0,VALID,0.602,
2011-08-29, 03:12:04,VALID,1008.972,VALID,0.0,VALID,104.0,VALID,0.0,VALID,24.746,VALID,71.0,VALID,1.337,
2011-08-29, 03:13:04,VALID,1008.926,VALID,0.0,VALID,104.0,VALID,0.0,VALID,24.748,VALID,76.0,VALID,1.109,
2011-08-29, 03:14:04,VALID,1008.948,VALID,0.0,VALID,104.0,VALID,0.0,VALID,24.727,VALID,68.0,VALID,1.373,
2011-08-29, 03:15:04,VALID,1008.91,VALID,0.0,VALID,104.0,VALID,0.0,VALID,24.707,VALID,59.0,VALID,1.009,
2011-08-29, 03:16:04,VALID,1008.894,VALID,0.0,VALID,104.0,VALID,0.0,VALID,24.707,VALID,86.0,VALID,1.034,
2011-08-29, 03:17:04,VALID,1008.881,VALID,0.0,VALID,104.0,VALID,0.0,VALID,24.707,VALID,59.0,VALID,1.036,
2011-08-29, 03:18:04,VALID,1008.849,VALID,0.0,VALID,104.0,VALID,0.0,VALID,24.688,VALID,54.0,VALID,1.011,
2011-08-29, 03:19:04,VALID,1008.852,VALID,0.0,VALID,104.0,VALID,0.106,VALID,24.686,VALID,49.0,VALID,0.518,
2011-08-29, 03:20:04,VALID,1008.8,VALID,0.0,VALID,104.0,VALID,0.106,VALID,24.707,VALID,49.0,VALID,0.142,
2011-08-29, 03:21:04,VALID,1008.814,VALID,0.0,VALID,104.0,VALID,0.106,VALID,24.706,VALID,39.0,VALID,0.508,
2011-08-29, 03:22:04,VALID,1008.818,VALID,0.0,VALID,104.0,VALID,0.106,VALID,24.706,VALID,21.0,VALID,0.424,
2011-08-29, 03:23:04,VALID,1008.816,VALID,0.0,VALID,104.0,VALID,0.106,VALID,24.686,VALID,20.0,VALID,0.512,
2011-08-29, 03:24:04,VALID,1008.825,VALID,0.0,VALID,104.0,VALID,0.106,VALID,24.707,VALID,20.0,VALID,0.4,
2011-08-29, 03:25:04,VALID,1008.818,VALID,0.0,VALID,104.0,VALID,0.106,VALID,24.706,VALID,20.0,VALID,0.39,
2011-08-29, 03:26:04,VALID,1008.87,VALID,0.0,VALID,104.0,VALID,0.106,VALID,24.686,VALID,20.0,VALID,0.511,
2011-08-29, 03:27:04,VALID,1008.848,VALID,0.0,VALID,104.0,VALID,0.106,VALID,24.707,VALID,20.0,VALID,0.524,
2011-08-29, 03:28:04,VALID,1008.879,VALID,0.0,VALID,104.0,VALID,0.106,VALID,24.686,VALID,20.0,VALID,0.402,
2011-08-29, 03:29:04,VALID,1008.879,VALID,0.0,VALID,104.0,VALID,0.106,VALID,24.667,VALID,26.0,VALID,0.378,
2011-08-29, 03:30:04,VALID,1008.905,VALID,0.0,VALID,104.0,VALID,0.106,VALID,24.665,VALID,26.0,VALID,0.516,
2011-08-29, 03:31:04,VALID,1008.924,VALID,0.0,VALID,104.0,VALID,0.106,VALID,24.707,VALID,27.0,VALID,0.449,
2011-08-29, 03:32:04,VALID,1008.908,VALID,0.0,VALID,104.0,VALID,0.106,VALID,24.706,VALID,27.0,VALID,0.512,
2011-08-29, 03:33:04,VALID,1008.948,VALID,0.0,VALID,104.0,VALID,0.106,VALID,24.725,VALID,27.0,VALID,0.472,
2011-08-29, 03:34:04,VALID,1008.933,VALID,0.0,VALID,104.0,VALID,0.0,VALID,24.727,VALID,27.0,VALID,0.503,
2011-08-29, 03:35:04,VALID,1008.937,VALID,0.0,VALID,104.0,VALID,0.0,VALID,24.746,VALID,37.0,VALID,0.592,
2011-08-29, 03:36:04,VALID,1008.948,VALID,0.0,VALID,104.0,VALID,0.0,VALID,24.746,VALID,59.0,VALID,0.637,
2011-08-29, 03:37:04,VALID,1008.946,VALID,0.0,VALID,104.0,VALID,0.0,VALID,24.766,VALID,66.0,VALID,0.445,
2011-08-29, 03:38:04,VALID,1008.939,VALID,0.0,VALID,104.0,VALID,0.0,VALID,24.766,VALID,67.0,VALID,0.631,
2011-08-29, 03:39:04,VALID,1008.909,VALID,0.0,VALID,104.0,VALID,0.0,VALID,24.785,VALID,67.0,VALID,0.282,
2011-08-29, 03:40:04,VALID,1008.936,VALID,0.0,VALID,104.0,VALID,0.0,VALID,24.785,VALID,67.0,VALID,0.188,